Regional Weather Roundup
Issued by NWS Upton, NY

Current Version | Previous Version | Text Only | Print | Product List | Glossary Off
Versions: 1 2 3 4 5 6 7 8 9 10 11 12 13 14 15 16 17 18 19 20 21 22 23 24 25 26 27 28 29 30 31 32 33 34 35 36 37 38 39 40 41 42 43 44 45 46 47 48 49 50

000
ASUS41 KOKX 050008
RWROKX

REGIONAL WEATHER ROUNDUP
NATIONAL WEATHER SERVICE NEW YORK NY
800 PM EDT MON MAY 04 2015

NOTE: "FAIR" INDICATES FEW OR NO CLOUDS BELOW 12,000 FEET WITH NO
SIGNIFICANT WEATHER AND/OR OBSTRUCTIONS TO VISIBILITY.

NYZ071-072-176-178-NJZ106-104-050100-
NEW YORK CITY METRO AREA


CITY           SKY/WX    TMP DP  RH WIND       PRES   REMARKS
CENTRAL PARK   CLEAR     80  41  24 VRB7      30.15R
LAGUARDIA APRT CLEAR     74  45  35 S10       30.12R
KENNEDY INTL   PTCLDY    64  48  56 S21       30.14S
NEWARK/LIBERTY PTCLDY    80  40  23 SW16G25   30.12R
BRNX BOT. GARD   N/A     70  46  43 SE8       30.13R
TETERBORO      CLEAR     80  39  23 SW14G22   30.10R
$$

NYZ177-179-078>081-050100-
LONG ISLAND NEW YORK

CITY           SKY/WX    TMP DP  RH WIND       PRES   REMARKS
FARMINGDALE    CLEAR     66  45  46 SW15G29   30.16R
ISLIP          PTCLDY    65  44  46 SW16G26   30.15S
SHIRLEY        CLEAR     63  45  51 SW10G20   30.18R
WESTHAMPTON    CLEAR     61  43  51 SW15G25   30.19R
MONTAUK POINT    N/A     57  45  64 S13       30.18S
$$

NYZ052-065-067-050100-
HUDSON VALLEY

CITY           SKY/WX    TMP DP  RH WIND       PRES   REMARKS
WHITE PLAINS   CLEAR     69  45  41 S7        30.12R
NEWBURGH       CLEAR     79  43  27 SW12G23   30.09S
MONTGOMERY     CLEAR     76  43  30 SW10      30.07R
POUGHKEEPSIE   CLEAR     81  39  22 S5        30.06R
ALBANY         MOCLDY    80  39  23 SW6       30.01S
$$

NJZ001-105-106-008-010-013-015-019>022-104-050100-
NEW JERSEY

CITY           SKY/WX    TMP DP  RH WIND       PRES   REMARKS
NEWARK/LIBERTY PTCLDY    80  40  23 SW16G25   30.12R
TETERBORO      CLEAR     80  39  23 SW14G22   30.10R
CALDWELL       CLEAR     80  41  24 VRB5      30.12R
MORRISTOWN     PTCLDY    79  41  25 SW10      30.12R
SOMERVILLE     CLEAR     76  42  29 S6        30.11R
SUSSEX         CLEAR     78  42  27 SW8G17    30.12R
ANDOVER          N/A     77  43  29 S7        30.12R
TRENTON        CLEAR     75  40  28 SW9       30.14R
MILLVILLE      CLEAR     71  46  40 S3        30.19R
ATLANTIC CITY  CLEAR     73  40  30 S16G23    30.19R
WRIGHTSTOWN    CLEAR     76  41  29 SW10      30.14R
TOMS RIVER     CLEAR     73  41  31 S10       30.18R
BELMAR         CLEAR     75  39  27 S10G20    30.17R
$$

PAZ047>061-062-071-050100-
EASTERN PENNSYLVANIA

CITY           SKY/WX    TMP DP  RH WIND       PRES   REMARKS
PHILADELPHIA   PTCLDY    77  43  29 S8        30.16R
ALLENTOWN      CLEAR     78  45  30 S10G20    30.12R
SCRANTON       CLEAR     80  38  22 SW6       30.10R
$$

CTZ002-004>006-009-010-012-RIZ004-006-007-MAZ004-011-015-050100-
SOUTHERN NEW ENGLAND
 IN CT

CITY           SKY/WX    TMP DP  RH WIND       PRES   REMARKS
BRADLEY INTL   PTCLDY    75  40  28 S15       30.08S
HARTFORD       CLEAR     74  39  28 S18G28    30.10R
DANBURY        CLEAR     72  41  32 S12       30.12R
WTRBRY/OXFORD  PTCLDY    70  39  32 S12G20    30.13S
BRIDGEPORT     CLEAR     66  44  45 S20       30.12S
MERIDEN        CLEAR     71  41  33 S10       30.12S
NEW HAVEN      PTCLDY    64  44  48 S13G22    30.13S
CHESTER        FAIR      68  41  37 SW13G18   30.16S
GROTON         CLEAR     59  43  55 SW9G18    30.16R
WILLIMANTIC    CLEAR     73  39  29 SW13G22   30.12S

 IN RI

CITY           SKY/WX    TMP DP  RH WIND       PRES   REMARKS
PROVIDENCE     PTCLDY    70  40  33 SW12G24   30.14R
BLOCK ISLAND   CLEAR     54  48  82 SW18G25   30.17S
WESTERLY       CLEAR     58  44  60 SW9       30.17S

 IN MA

CITY           SKY/WX    TMP DP  RH WIND       PRES   REMARKS
BOSTON         PTCLDY    74  38  27 SW18G28   30.08R
WORCESTER      CLEAR     72  37  28 SW20G26   30.11R
WESTFIELD      CLEAR     76  39  26 S14G22    30.07R
PROVINCETOWN   CLEAR     55  48  76 S18G28    30.14S
NANTUCKET      CLEAR     53  50  89 SW13      30.20S
$$

ANZ330-335-338-340-345-350-353-355-050100-
COASTAL MARINE OBSERVATIONS


STATION/POSITION TIME  SKY/WX   TEMP    WIND        PRES    VSBY  WAVE
                                AIR SEA DIR/SP/G                  HT/PER
                 (UTC)          (F)     (DEG/KT/KT) (MB)    (MI)  (FT/S)
NY HARB ENTRANCE 2350            58 52  200/ 17/ 21 1020.5          4/ 5
4S FIRE IS       2303               50                N/A           4/ 9
20S FIRE ISLAND  2350            54 49  200/ 16/ 17 1021.5          4/ 8
GREAT SOUTH BAY  2300            58 60  230/ 16/ 21   N/A
23SW MTP         2350            53 47  210/ 16/ 17 1021.7          4/10
HUDSON CANYON    NOT AVBL
KINGS POINT      2300            69 54  190/ 16/ 17 1019.2
EASTERN LI SOUND 2300            57     200/ 14/ 16   N/A
ROBBINS REEF     2300            81     220/ 12/ 14 1018.6
$$


>>>>>>>>>>>>>>>>>>>>>>>>>>>> KEY <<<<<<<<<<<<<<<<<<<<<<<<<<<
>                                                          <
>     SKY/WX - SKY CONDITION/PRESENT WEATHER               <
>     TMP    - TEMPERATURE IN FAHRENHEIT                   <
>     DP     - DEWPOINT IN FAHRENHEIT                      <
>     RH     - RELATIVE HUMIDITY IN PERCENT                <
>     WIND   - DIRECTION AND SPEED IN MPH                  <
>     PRES   - MEAN SEA LEVEL PRESSURE IN INCHES OF HG     <
>     WCI    - WIND CHILL INDEX                            <
>     VSB    - VISIBILITY IN MILES                         <
>     HX     - HEAT INDEX                                  <
>     TC     - TEMPERATURE IN CELSIUS                      <
>     VRB    - VARIABLE WIND DIRECTION                     <
>                                                          <
>>>>>>>>>>>>>>>>>>>>>>>>>>>> KEY <<<<<<<<<<<<<<<<<<<<<<<<<<<





USA.gov is the U.S. government's official web portal to all federal, state and local government web resources and services.